SL-16 DEB, 22407

Orbit data source: Space-Track

SL-16 DEB, 22407 is space debris in LEO originally from a launch on Fri, 25 Dec 1992 UTC launched from the Tyuratam Missile And Space Complex (TTMTR). Debris objects in space refer to the collection of defunct objects orbiting the Earth. Examples of debris include non-operational satellites, rocket bodies, and fragments generated from explosions, collisions, or faulty payload assembly.

Loading next visibility...
Identifier
22407, 1992-093CY
Orbit
LEO
Country
Flag of CISCIS
Related business
Manufacturer
Unknown
Mission
Spacecraft
Bus & Motor
Unknown
Mass
Unknown
Launch date (UTC)
1992-12-25 (33 years ago)
Launch vehicle
Unknown
Launch site
Tyuratam Missile And Space Complex (TTMTR)
Object type
Payload
Rocket body
Debris
Shape & HBR
Unknown shape, 0.1 m
Radar Cross Section
Small (<0.1 m²)

Expand to show TLE details & history
Last TLE update: 1 day ago

TLE from 1 day ago
0 SL-16 DEB
1 22407U 92093CY  25348.30264947  .00000850  00000-0  70829-3 0  9997
2 22407  70.8606 312.4735 0182185 305.6883  52.7382 13.84022500658457
Epoch: 2025-12-14T07:15Z
TLE epoch observation values (Epoch: 2025-12-14T07:15:48.914Z)
Latitude
-0.00001°
Longitude
120.30218°
Altitude
872.738 km
Speed
7.456 km/s
True Right ascension
20h 49m 53s
True Declination
0° 00' 00"
Sunlit
Object was in daylight at epoch
Visualization orbit readout
Latitude
Unknown
Longitude
Unknown
Altitude
Unknown
Speed
Unknown
Apparent Right ascension
Unknown
Apparent Declination
Unknown
Sunlit
N/A
Visualization observer readout
Local Sidereal Time
15:10:35
Azimuth
Unknown
Elevation
Unknown
Doppler factor
Unknown
Orbital elements
Apogee altitude
1,081.086 km
Perigee altitude
814.158 km
Semi-major axis
7,325.759 km
Eccentricity
0.01822
Inclination
70.8606°
RAAN
312.4735°
Arg. of periapsis
305.6883°
True anomaly
54.42272°
Mean anomaly
52.7382°
Eccentric anomaly
53.57815°
Mean motion
3.4615 °/min
Orbital period
104 mins
BSTAR
0.00070829
Loading maneuver chart data...
Computing Atmospheric mass density...
Loading historical data...
Loading historical data...
Loading historical data...
Loading historical data...
Loading historical data...
Loading historical data...
Loading historical data...

Documentation

Showing up to 5 results
|